Home   Weather   Hamburg   Past weeks

Flag for Germany Past Weather in Hamburg, Hamburg, Germany — Yesterday and Last 2 Weeks

46 °F

Passing clouds.

Feels Like: 42 °F
Forecast: 40 / 50 °F
Wind: 8 mph from Southeast

Location: Hamburg-Fuhlsbuettel

Current Time: Oct 23, 2016 at 8:00:52 PM

Latest Report: Oct 23, 2016 at 7:20 PM

Visibility: N/A

Pressure: 30.01 "Hg

Humidity: 87%

Dew Point: 43 °F

Location of HamburgLocation

Past Weather in Hamburg — Graph


Hamburg Temperature Yesterday

Maximum temperature yesterday: 48 °F (at 12:20 PM)
Minimum temperature yesterday: 41 °F (at 6:50 AM)
Average temperature yesterday: 45 °F

High & Low Weather Summary for the Past Weeks

High61 °F (Oct 18, 2:20 PM)100% (Oct 9, 1:20 AM)30.30 "Hg (Oct 9, 1:20 AM)
Low36 °F (Oct 9, 2:20 AM)62% (Oct 23, 2:50 PM)29.80 "Hg (Oct 15, 5:50 AM)
Average48 °F89%30.08 "Hg
* Reported Oct 8 6:20 PM — Oct 23 6:50 PM, Hamburg, Weather by CustomWeather, © 2016

Note: Actual official high and low records may vary slightly from our data, if they occured in-between our weather recording intervals... More about our weather records


Hamburg Weather History for the Previous 24 Hours

Scroll right to see more
Time TempWeatherWind HumidityBarometerVisibility
6:50 PM
Sun, Oct 23
46 °FClear.8 mph87%30.01 "Hg10 mi
6:20 PM48 °FPassing clouds.8 mph82%29.98 "HgN/A
5:50 PM48 °FPartly sunny.9 mph82%29.98 "HgN/A
5:20 PM48 °FScattered clouds.9 mph76%29.98 "HgN/A
4:50 PM48 °FScattered clouds.12 mph76%29.98 "HgN/A
4:20 PM48 °FPartly sunny.12 mph82%29.98 "HgN/A
3:50 PM50 °FBroken clouds.10 mph76%29.98 "HgN/A
3:20 PM50 °FScattered clouds.8 mph67%29.98 "HgN/A
2:50 PM52 °FScattered clouds.9 mph62%29.98 "HgN/A
2:20 PM52 °FScattered clouds.7 mph67%29.98 "HgN/A
1:50 PM50 °FScattered clouds.7 mph71%29.98 "HgN/A
1:20 PM50 °FBroken clouds.6 mph76%29.98 "HgN/A
12:50 PM48 °FBroken clouds.7 mph82%29.98 "HgN/A
12:20 PM48 °FPartly sunny.7 mph82%29.98 "HgN/A
11:50 AM46 °FBroken clouds.7 mph87%29.98 "Hg4 mi
11:20 AM46 °FBroken clouds.6 mph93%29.98 "Hg4 mi
10:50 AM46 °FBroken clouds.5 mph87%29.98 "Hg4 mi
10:20 AM45 °FFog.5 mph100%29.98 "Hg3 mi
9:50 AM45 °FFog.6 mph93%29.98 "Hg3 mi
9:20 AM45 °FFog.7 mph93%29.98 "Hg3 mi
8:50 AM45 °FFog.7 mph93%29.98 "Hg3 mi
8:20 AM45 °FFog.6 mph100%29.95 "Hg3 mi
7:50 AM45 °FFog.6 mph100%29.95 "Hg3 mi
7:20 AM45 °FPassing clouds.7 mph100%29.95 "Hg4 mi
6:50 AM45 °FPassing clouds.1 mph93%29.95 "Hg5 mi
6:20 AM45 °FLight rain. Partly cloudy.5 mph100%29.95 "Hg5 mi
5:50 AM45 °FLight rain. Passing clouds.2 mph100%29.95 "Hg5 mi
5:20 AM45 °FLight rain. Passing clouds.2 mph100%29.95 "Hg6 mi
4:50 AM45 °FLight rain. Passing clouds.1 mph100%29.95 "Hg6 mi
4:20 AM45 °FLight rain. Passing clouds.No wind100%29.95 "HgN/A
3:50 AM45 °FPartly cloudy.No wind100%29.95 "HgN/A
3:20 AM45 °FPassing clouds.2 mph100%29.95 "HgN/A
2:50 AM45 °FPassing clouds.1 mph100%29.95 "HgN/A
2:20 AM45 °FPartly cloudy.2 mph100%29.95 "HgN/A
1:50 AM45 °FPassing clouds.5 mph100%29.95 "HgN/A
1:20 AM45 °FQuite cool.3 mph93%29.95 "HgN/A
12:50 AM45 °FLight rain. Partly cloudy.2 mph93%29.95 "HgN/A
12:20 AM45 °FLight rain. Passing clouds.2 mph93%29.95 "HgN/A
11:50 PM
Sat, Oct 22
45 °FLight rain. Partly cloudy.1 mph93%29.95 "HgN/A
11:20 PM45 °FLight rain. Partly cloudy.1 mph93%29.95 "HgN/A
10:50 PM45 °FLight rain. Passing clouds.3 mph93%29.95 "HgN/A
10:20 PM45 °FLight rain. Passing clouds.2 mph93%29.95 "HgN/A
9:50 PM45 °FLight rain. Passing clouds.3 mph93%29.95 "HgN/A
9:20 PM45 °FLight rain. Passing clouds.3 mph93%29.95 "HgN/A
8:50 PM45 °FLight rain. Passing clouds.1 mph93%29.95 "Hg5 mi
8:20 PM45 °FLight rain. Passing clouds.2 mph93%29.95 "Hg5 mi
Weather by CustomWeather, © 2016

See weather overviewHow to use our weather pages